Regional Weather Roundup
Issued by NWS Burlington, VT

Home | Current Version | Previous Version | Text Only | Print | Product List | Glossary On
Versions: 1 2 3 4 5 6 7 8 9 10 11 12 13 14 15 16 17 18 19 20 21 22 23 24 25 26 27 28 29 30 31 32 33 34 35 36 37 38 39 40 41 42 43 44 45 46 47 48 49 50
000
ASUS41 KBTV 201710
RWRBTV
VERMONT REGIONAL WEATHER ROUNDUP
NATIONAL WEATHER SERVICE BURLINGTON VT
100 PM EDT WED AUG 20 2014

NOTE: "FAIR" INDICATES FEW OR NO CLOUDS BELOW 12,000 FEET WITH NO
SIGNIFICANT WEATHER AND/OR OBSTRUCTIONS TO VISIBILITY.

* THESE REPORTS ARE NOT UNDER NWS QUALITY CONTROL AND/OR DO NOT
  REPORT WEATHER SUCH AS PRECIPITATION AND FOG.

VTZ001>019-201800-
_____VERMONT_____


CITY           SKY/WX    TMP DP  RH WIND       PRES   REMARKS
BURLINGTON     NOT AVBL
MONTPELIER     MOSUNNY   76  54  46 SE8       30.07R
MORRISVILLE    MOSUNNY   78  59  51 S3        30.03S
ST. JOHNSBURY*   N/A     74  56  53 MISG      30.01F
MIDDLEBURY*    FAIR      77  58  51 S3        29.99S
RUTLAND*       PTSUNNY   77  59  53 W6        30.00S
SPRINGFIELD    PTSUNNY   76  57  51 SE6       30.02F
HIGHGATE*      FAIR      78  63  60 CALM      29.98F
NEWPORT*       FAIR      75  57  53 S7        30.03S
BENNINGTON     MOSUNNY   78  63  59 CALM      30.00F
SUTTON*          N/A     72 N/A N/A MISG        N/A

_____LAKE CHAMPLAIN_____


CITY           SKY/WX    TMP DP  RH WIND       PRES   REMARKS
COLCHESTER RF*   N/A     70  63  78 S5          N/A
DIAMOND ISL*     N/A     72  61  68 S12         N/A

$$

NYZ007-026>031-035-052-083-201800-
_____NORTHERN NEW YORK_____


CITY           SKY/WX    TMP DP  RH WIND       PRES   REMARKS
PLATTSBURGH    PTSUNNY   75  61  61 SE12      29.98F
SARANAC LAKE   MOSUNNY   75  60  59 W3        29.99S
MASSENA        MOSUNNY   77  62  59 NE9       29.96F
OGDENSBURG*    MOSUNNY   82  66  57 S3        29.93F
WATERTOWN      MOSUNNY   79  66  64 W8        29.92F
FT DRUM        MOSUNNY   80  63  55 S6        29.93F
ALBANY         PTSUNNY   79  65  62 VRB6      29.98F
GLENS FALLS    MOSUNNY   76  62  62 SE8       29.99F

$$
NHZ002-005-011-201800-
_____NEW HAMPSHIRE_____


CITY           SKY/WX    TMP DP  RH WIND       PRES   REMARKS
LEBANON        MOSUNNY   76  56  49 VRB5      30.02S
KEENE          MOSUNNY   79  55  44 SE5       30.02S
MT WASHINGTON  MOSUNNY   55  46  71 SW7         N/A
PLYMOUTH       FAIR      77  62  59 E3        30.02S
WHITEFIELD     SUNNY     76  58  53 VRB5      30.03F

$$

_____REGIONAL QUEBEC LOCATIONS_____


CITY           SKY/WX    TMP DP  RH WIND       PRES   REMARKS
MONTREAL       PTSUNNY   77  57  50 E10       29.98F
QUEBEC CITY    PTSUNNY   75  59  57 VRB2      30.03F
SHERBROOKE     SUNNY     75  55  50 SE5       30.02F

_____REGIONAL ONTARIO LOCATIONS_____


CITY           SKY/WX    TMP DP  RH WIND       PRES   REMARKS
OTTAWA         MOSUNNY   75  61  60 E10       29.96F

______KEY______
VSB  - VISIBILITY IN MILES
WCI  - WIND CHILL INDEX
HX   - HEAT INDEX
$$
NNNN


USA.gov is the U.S. government's official web portal to all federal, state and local government web resources and services.